TimeMST,TemperatureF,Dew PointF,Humidity,Sea Level PressureIn,VisibilityMPH,Wind Direction,Wind SpeedMPH,Gust SpeedMPH,PrecipitationIn,Events,Conditions,WindDirDegrees,DateUTC
12:15 AM,26.6,17.6,69,30.47,10.0,SSE,6.9,-,N/A,,Clear,160,2013-12-16 07:15:00
12:35 AM,26.6,17.6,69,30.47,10.0,SE,5.8,-,N/A,,Clear,140,2013-12-16 07:35:00
12:55 AM,26.6,17.6,69,30.47,10.0,SSE,8.1,-,N/A,,Clear,160,2013-12-16 07:55:00
1:15 AM,26.6,17.6,69,30.46,10.0,SSE,6.9,-,N/A,,Clear,150,2013-12-16 08:15:00
1:35 AM,26.6,17.6,69,30.46,10.0,SE,6.9,-,N/A,,Clear,140,2013-12-16 08:35:00
1:55 AM,26.6,17.6,69,30.46,10.0,SSE,9.2,-,N/A,,Clear,160,2013-12-16 08:55:00
2:15 AM,26.6,17.6,69,30.46,10.0,SSE,8.1,-,N/A,,Clear,150,2013-12-16 09:15:00
2:35 AM,26.6,17.6,69,30.46,10.0,SE,8.1,-,N/A,,Clear,140,2013-12-16 09:35:00
2:55 AM,26.6,17.6,69,30.46,10.0,SSE,9.2,-,N/A,,Clear,150,2013-12-16 09:55:00
3:15 AM,28.4,17.6,64,30.46,10.0,SE,6.9,-,N/A,,Clear,140,2013-12-16 10:15:00
3:35 AM,28.4,17.6,64,30.46,10.0,SSE,8.1,-,N/A,,Clear,150,2013-12-16 10:35:00
3:55 AM,30.2,17.6,60,30.46,10.0,SSE,6.9,-,N/A,,Clear,150,2013-12-16 10:55:00
4:15 AM,26.6,17.6,69,30.46,10.0,SSE,6.9,-,N/A,,Clear,160,2013-12-16 11:15:00
4:35 AM,32.0,15.8,51,30.46,10.0,SSE,8.1,-,N/A,,Clear,150,2013-12-16 11:35:00
4:55 AM,30.2,15.8,55,30.45,10.0,SSE,9.2,-,N/A,,Clear,150,2013-12-16 11:55:00
5:15 AM,32.0,15.8,51,30.45,10.0,SSE,9.2,-,N/A,,Clear,150,2013-12-16 12:15:00
5:35 AM,28.4,17.6,64,30.45,10.0,SSE,11.5,-,N/A,,Clear,150,2013-12-16 12:35:00
5:55 AM,28.4,15.8,59,30.45,10.0,SE,8.1,-,N/A,,Clear,140,2013-12-16 12:55:00
6:15 AM,30.2,15.8,55,30.45,10.0,SE,9.2,-,N/A,,Clear,140,2013-12-16 13:15:00
6:35 AM,28.4,15.8,59,30.46,10.0,SE,6.9,-,N/A,,Clear,140,2013-12-16 13:35:00
6:55 AM,28.4,15.8,59,30.46,10.0,SE,8.1,-,N/A,,Clear,140,2013-12-16 13:55:00
7:15 AM,28.4,15.8,59,30.46,10.0,SSE,9.2,-,N/A,,Clear,150,2013-12-16 14:15:00
7:35 AM,28.4,15.8,59,30.46,10.0,SSE,9.2,-,N/A,,Clear,150,2013-12-16 14:35:00
7:55 AM,26.6,15.8,64,30.47,10.0,SSE,8.1,-,N/A,,Clear,150,2013-12-16 14:55:00
8:15 AM,30.2,15.8,55,30.48,10.0,SSE,10.4,-,N/A,,Clear,150,2013-12-16 15:15:00
8:35 AM,32.0,15.8,51,30.48,10.0,SSE,8.1,-,N/A,,Clear,150,2013-12-16 15:35:00
8:55 AM,35.6,15.8,44,30.48,10.0,SSE,8.1,-,N/A,,Clear,150,2013-12-16 15:55:00
9:15 AM,39.2,15.8,39,30.48,10.0,SSE,5.8,-,N/A,,Clear,150,2013-12-16 16:15:00
9:35 AM,44.6,15.8,31,30.49,10.0,SSE,4.6,-,N/A,,Clear,150,2013-12-16 16:35:00
9:55 AM,46.4,15.8,29,30.50,10.0,Calm,Calm,-,N/A,,Clear,0,2013-12-16 16:55:00
10:15 AM,50.0,15.8,26,30.50,10.0,Calm,Calm,-,N/A,,Clear,0,2013-12-16 17:15:00
10:35 AM,53.6,14.0,21,30.50,10.0,Calm,Calm,-,N/A,,Clear,0,2013-12-16 17:35:00
10:55 AM,55.4,14.0,20,30.50,10.0,Calm,Calm,-,N/A,,Clear,0,2013-12-16 17:55:00
11:15 AM,55.4,17.6,23,30.50,10.0,Calm,Calm,-,N/A,,Clear,0,2013-12-16 18:15:00
11:35 AM,57.2,17.6,21,30.49,10.0,Calm,Calm,-,N/A,,Clear,0,2013-12-16 18:35:00
11:55 AM,57.2,17.6,21,30.48,10.0,Calm,Calm,-,N/A,,Clear,0,2013-12-16 18:55:00
12:15 PM,57.2,19.4,23,30.47,10.0,Calm,Calm,-,N/A,,Clear,0,2013-12-16 19:15:00
12:35 PM,57.2,23.0,27,30.47,10.0,Calm,Calm,-,N/A,,Clear,0,2013-12-16 19:35:00
12:55 PM,57.2,24.8,29,30.46,10.0,West,5.8,-,N/A,,Clear,270,2013-12-16 19:55:00
1:15 PM,59.0,21.2,23,30.45,10.0,NW,6.9,-,N/A,,Clear,310,2013-12-16 20:15:00
1:35 PM,59.0,23.0,25,30.44,10.0,NW,8.1,-,N/A,,Clear,310,2013-12-16 20:35:00
1:55 PM,59.0,23.0,25,30.44,10.0,NW,5.8,-,N/A,,Clear,310,2013-12-16 20:55:00
2:15 PM,59.0,23.0,25,-9999,10.0,North,-9999.0,-,N/A,,Unknown,0,2013-12-16 21:15:00
2:35 PM,-9999,-9999,N/A,-9999,-9999.0,North,-9999.0,-,N/A,,Unknown,0,2013-12-16 21:35:00
2:55 PM,-9999,-9999,N/A,-9999,-9999.0,North,-9999.0,-,N/A,,Unknown,0,2013-12-16 21:55:00
3:15 PM,-9999,-9999,N/A,-9999,-9999.0,North,-9999.0,-,N/A,,Unknown,0,2013-12-16 22:15:00
3:35 PM,-9999,-9999,N/A,-9999,-9999.0,North,-9999.0,-,N/A,,Unknown,0,2013-12-16 22:35:00
3:55 PM,55.4,17.6,23,30.44,-9999.0,Calm,Calm,-,N/A,,Unknown,0,2013-12-16 22:55:00
4:15 PM,55.4,21.2,26,30.44,10.0,NW,4.6,-,N/A,,Clear,320,2013-12-16 23:15:00
4:35 PM,53.6,19.4,26,30.44,10.0,Calm,Calm,-,N/A,,Clear,0,2013-12-16 23:35:00
4:55 PM,50.0,23.0,35,30.44,10.0,Calm,Calm,-,N/A,,Clear,0,2013-12-16 23:55:00
5:15 PM,48.2,23.0,37,30.44,10.0,WNW,5.8,-,N/A,,Clear,300,2013-12-17 00:15:00
5:35 PM,48.2,23.0,37,30.44,10.0,Calm,Calm,-,N/A,,Clear,0,2013-12-17 00:35:00
5:55 PM,44.6,23.0,43,30.44,10.0,Calm,Calm,-,N/A,,Clear,0,2013-12-17 00:55:00
6:15 PM,41.0,23.0,49,30.45,10.0,Calm,Calm,-,N/A,,Clear,0,2013-12-17 01:15:00
6:35 PM,35.6,23.0,60,30.45,10.0,SSE,8.1,-,N/A,,Clear,160,2013-12-17 01:35:00
6:55 PM,35.6,23.0,60,30.46,10.0,SSE,6.9,-,N/A,,Clear,150,2013-12-17 01:55:00
7:15 PM,33.8,23.0,65,30.46,10.0,SSE,8.1,-,N/A,,Clear,160,2013-12-17 02:15:00
7:35 PM,32.0,23.0,69,30.47,10.0,SSE,9.2,-,N/A,,Clear,150,2013-12-17 02:35:00
7:55 PM,32.0,21.2,64,30.47,10.0,SE,9.2,-,N/A,,Clear,140,2013-12-17 02:55:00
8:15 PM,33.8,19.4,56,30.47,10.0,SSE,9.2,-,N/A,,Clear,150,2013-12-17 03:15:00
8:35 PM,35.6,17.6,48,30.47,10.0,SSE,8.1,-,N/A,,Clear,150,2013-12-17 03:35:00
8:55 PM,37.4,17.6,45,30.47,10.0,SSE,10.4,-,N/A,,Clear,150,2013-12-17 03:55:00
9:15 PM,35.6,17.6,48,30.47,10.0,SSE,10.4,-,N/A,,Clear,150,2013-12-17 04:15:00
9:35 PM,33.8,19.4,56,30.48,10.0,SSE,8.1,-,N/A,,Clear,150,2013-12-17 04:35:00
9:55 PM,33.8,17.6,52,30.48,10.0,SSE,10.4,-,N/A,,Clear,150,2013-12-17 04:55:00
10:15 PM,35.6,17.6,48,30.48,10.0,SSE,10.4,-,N/A,,Clear,150,2013-12-17 05:15:00
11:15 PM,33.8,17.6,52,30.49,10.0,SSE,9.2,-,N/A,,Clear,150,2013-12-17 06:15:00
11:35 PM,33.8,17.6,52,30.49,10.0,SSE,8.1,-,N/A,,Clear,150,2013-12-17 06:35:00
11:55 PM,33.8,17.6,52,30.49,10.0,SSE,9.2,-,N/A,,Clear,150,2013-12-17 06:55:00